Location: Moscow
(55.7500°N, 37.5830°E)
Time: 18:14:43
(UTC+03:00)

ISS - Pass Details

Date: 22 March 2026
Orbit: 416 x 425 km, 51.6° (Epoch: 19 April)

Event Time Altitude Azimuth Distance (km) Brightness Sun altitude
Rises 21:10:05 0° 273° (W) 2,388 1.1 -19.7°
Reaches altitude 10° 21:12:33 10° 256° (WSW) 1,518 -0.4 -20.0°
Enters shadow 21:14:51 20° 214° (SW) 1,051 -1.8 -20.3°
